Weather History for Christmas Island, IS

Change the Weather History Date:

Thursday, August 22, 2013

  Actual Average Record
Temperature  
Mean Temperature 76 °F -  
Max Temperature 79 °F 76 °F 80 °F (2014)
Min Temperature 73 °F 70 °F 69 °F (1997)
Cooling Degree Days 11    
Growing Degree Days 26 (Base 50)    
Moisture  
Dew Point 70 °F    
Average Humidity 80    
Maximum Humidity 89    
Minimum Humidity 69    
Precipitation  
Precipitation 0.00 in - - ()
Sea Level Pressure  
Sea Level Pressure 29.93 in    
Wind  
Wind Speed 15 mph ()    
Max Wind Speed 18 mph    
Max Gust Speed 30 mph    
Visibility 6.2 miles    
Events      
Averages and records for this station are not official NWS values.
T = Trace of Precipitation, MM = Missing Value Source: Averaged Metar Reports

Daily Weather History Graph

Daily Weather History Graph

Search for Another Location

Airport:

Trip Planner

Search our weather history database for the weather conditions in past years. The results will help you decide how hot, cold, wet, or windy it might be!

Date:

Astronomy

Aug. 22, 2013 Rise Set
Actual Time 6:05 AM CXT 5:54 PM CXT
Civil Twilight 5:44 AM CXT 6:16 PM CXT
Nautical Twilight 5:19 AM CXT 6:41 PM CXT
Astronomical Twilight 4:54 AM CXT 7:05 PM CXT
Moon 7:05 PM CXT (8/22) 6:41 AM CXT (8/22)
Length of Visible Light 12h 32m
Length of Day
11h 49m
Full, 98% of the Moon is Illuminated
Aug 22
Full
Aug 28
Last Quarter
Sep 5
New
Sep 13
First Quarter
Sep 19
Full

Hourly Weather History & Observations

Time (CXT) Temp. Dew Point Humidity Pressure Visibility Wind Dir Wind Speed Gust Speed Precip Events Conditions
12:00 AM 74 °F 70 °F 82% 29.94 in - ESE 15.0 mph - -   Overcast
12:00 AM 75.2 °F 69.8 °F 83% 29.98 in - ESE 15.0 mph - N/A   Overcast
1:00 AM 74 °F 70 °F 82% 29.92 in - ESE 16.1 mph - -  
1:00 AM 75.2 °F 69.8 °F 83% 29.95 in - ESE 16.1 mph - N/A   Mostly Cloudy
1:35 AM 73.4 °F 68.0 °F 83% 29.95 in - ESE 16.1 mph - N/A   Mostly Cloudy
1:38 AM 73.4 °F 68.0 °F 83% 29.95 in - ESE 16.1 mph - N/A   Mostly Cloudy
1:51 AM 75.2 °F 69.8 °F 83% 29.95 in - ESE 16.1 mph - N/A   Mostly Cloudy
2:00 AM 75.2 °F 69.8 °F 83% 29.95 in - ESE 17.3 mph - N/A   Mostly Cloudy
2:40 AM 73.4 °F 69.8 °F 88% 29.95 in - ESE 16.1 mph - N/A   Mostly Cloudy
3:00 AM 74 °F 68 °F 78% 29.91 in - ESE 17.3 mph - -   Overcast
3:00 AM 73.4 °F 68.0 °F 83% 29.95 in - ESE 17.3 mph - N/A   Overcast
3:56 AM 73.4 °F 68.0 °F 83% 29.92 in 6.2 mi ESE 16.1 mph - N/A   Overcast
4:00 AM 73.4 °F 68.0 °F 83% 29.92 in - ESE 16.1 mph - N/A   Overcast
4:09 AM 75.2 °F 68.0 °F 78% 29.92 in - ESE 17.3 mph 28.8 mph N/A   Overcast
5:00 AM 73.4 °F 68.0 °F 83% 29.95 in - ESE 17.3 mph - N/A   Mostly Cloudy
6:00 AM 75.2 °F 68.0 °F 78% 29.95 in - ESE 16.1 mph - N/A   Overcast
6:01 AM 75.2 °F 68.0 °F 78% 29.95 in - ESE 16.1 mph - N/A   Overcast
7:00 AM 75.2 °F 69.8 °F 83% 29.95 in 6.2 mi East 16.1 mph - N/A   Mostly Cloudy
7:54 AM 75.2 °F 69.8 °F 83% 29.98 in 6.2 mi East 17.3 mph 28.8 mph N/A   Overcast
8:00 AM 75.2 °F 69.8 °F 83% 29.98 in 6.2 mi East 18.4 mph - N/A   Overcast
8:09 AM 77.0 °F 69.8 °F 78% 29.98 in 6.2 mi ESE 17.3 mph 28.8 mph N/A   Overcast
9:00 AM 76 °F 69 °F 75% 29.95 in - East 16.1 mph - -   Overcast
9:00 AM 77.0 °F 69.8 °F 78% 29.98 in 6.2 mi East 16.1 mph - N/A   Mostly Cloudy
9:32 AM 77.0 °F 69.8 °F 78% 29.98 in 6.2 mi East 15.0 mph - N/A   Overcast
10:00 AM 77 °F 70 °F 73% 29.94 in - East 16.1 mph - -  
10:00 AM 77.0 °F 69.8 °F 78% 29.98 in 6.2 mi East 16.1 mph - N/A   Overcast
10:50 AM 77.0 °F 69.8 °F 78% 29.95 in 6.2 mi East 15.0 mph - N/A   Overcast
10:55 AM 77.0 °F 69.8 °F 78% 29.95 in 6.2 mi East 16.1 mph 29.9 mph N/A   Overcast
11:00 AM 77.0 °F 71.6 °F 83% 29.95 in 6.2 mi East 15.0 mph 29.9 mph N/A   Overcast
12:00 PM 78 °F 70 °F 69% 29.90 in - East 15.0 mph - -   Overcast
12:00 PM 77.0 °F 69.8 °F 78% 29.92 in 6.2 mi East 15.0 mph 28.8 mph N/A   Overcast
1:00 PM 77 °F 70 °F 73% 29.88 in - East 17.3 mph - -  
1:00 PM 77.0 °F 69.8 °F 78% 29.92 in 6.2 mi East 17.3 mph - N/A   Overcast
2:00 PM 77.0 °F 69.8 °F 78% 29.89 in 6.2 mi ESE 16.1 mph - N/A   Overcast
2:24 PM 77.0 °F 71.6 °F 83% 29.89 in 6.2 mi ESE 13.8 mph - N/A   Overcast
2:31 PM 77.0 °F 69.8 °F 78% 29.89 in 6.2 mi ESE 15.0 mph - N/A   Overcast
3:00 PM 77 °F 71 °F 76% 29.85 in - ESE 13.8 mph - -   Overcast
3:00 PM 77.0 °F 71.6 °F 83% 29.89 in 6.2 mi ESE 13.8 mph - N/A   Mostly Cloudy
4:00 PM 77 °F 70 °F 74% 29.85 in - ESE 16.1 mph - -  
4:00 PM 77.0 °F 69.8 °F 78% 29.89 in 6.2 mi ESE 16.1 mph - N/A   Mostly Cloudy
4:01 PM 77.0 °F 69.8 °F 78% 29.89 in 6.2 mi ESE 16.1 mph - N/A   Mostly Cloudy
4:13 PM 77.0 °F 69.8 °F 78% 29.89 in 6.2 mi ESE 15.0 mph - N/A   Mostly Cloudy
4:19 PM 77.0 °F 71.6 °F 83% 29.89 in 6.2 mi ESE 13.8 mph - N/A   Overcast
5:00 PM 77.0 °F 69.8 °F 78% 29.89 in 6.2 mi ESE 15.0 mph - N/A   Overcast
5:44 PM 75.2 °F 69.8 °F 83% 29.89 in 6.2 mi ESE 15.0 mph - N/A   Overcast
6:05 PM 75.2 °F 71.6 °F 89% 29.89 in - ESE 12.7 mph - N/A   Overcast
6:59 PM 75.2 °F 69.8 °F 83% 29.92 in - ESE 15.0 mph - N/A   Mostly Cloudy
7:00 PM 75 °F 71 °F 82% 29.89 in - ESE 15.0 mph - -  
7:00 PM 75.2 °F 69.8 °F 83% 29.92 in - ESE 15.0 mph - N/A   Mostly Cloudy
7:32 PM 75.2 °F 69.8 °F 83% 29.95 in - ESE 13.8 mph - N/A   Mostly Cloudy
8:02 PM 75.2 °F 69.8 °F 83% 29.95 in - ESE 15.0 mph - N/A   Mostly Cloudy
8:40 PM 75.2 °F 71.6 °F 89% 29.95 in - ESE 15.0 mph - N/A   Mostly Cloudy
9:00 PM 75 °F 69 °F 77% 29.94 in - ESE 17.3 mph - -   Overcast
9:00 PM 75.2 °F 69.8 °F 83% 29.98 in - ESE 17.3 mph - N/A   Overcast
9:10 PM 75.2 °F 69.8 °F 83% 29.98 in - ESE 15.0 mph - N/A   Mostly Cloudy
10:00 PM 75 °F 67 °F 71% 29.95 in - ESE 16.1 mph - -  
10:00 PM 75.2 °F 68.0 °F 78% 29.98 in 6.2 mi ESE 16.1 mph - N/A   Mostly Cloudy
11:00 PM 75.2 °F 69.8 °F 83% 29.98 in - ESE 15.0 mph - N/A   Mostly Cloudy